Station OLSA2 - 9462450 - Nikolski, AK Image indicating link to RSS feed of recent meteorological observations for station OLSA2


Conditions at OLSA2 as of
(9:00 am AKDT)
1700 GMT on 04/20/2024:
     

Click on the graph icon in the table below to see a time series plot of the last five days of that observation.

5-day plot - Wind Direction Wind Direction (WDIR): N ( 350 deg true )
5-day plot - Wind Speed Wind Speed (WSPD): 22.0 kts
5-day plot - Wind Gust Wind Gust (GST): 27.0 kts
5-day plot - Atmospheric Pressure Atmospheric Pressure (PRES):29.74 in
5-day plot - Pressure Tendency Pressure Tendency (PTDY):+0.01 in ( Rising )
5-day plot - Air Temperature Air Temperature (ATMP): 34.3 °F
5-day plot - Wind Chill Wind Chill (CHILL): 21.7 °F
5-day plot - Wind Speed at 10 Meters Wind Speed at 10 meters (WSPD10M): 21.4 kts
5-day plot - Wind Speed at 20 Meters Wind Speed at 20 meters (WSPD20M): 23.3 kts
5-day plot -  Wind Speed, Wind Gust and Atmospheric Pressure Combined plot of Wind Speed, Gust, and Air Pressure
NOS Water Level Observation Network Water Level
Previous observations
TIME
(AKDT)
5-day plot - Wind Direction
WDIR
 
5-day plot - Wind Speed
WSPD
kts
5-day plot - Wind Gust
GST
kts
5-day plot - Wave Height
WVHT
ft
5-day plot - Dominant Wave Period
DPD
sec
5-day plot - Average Wave Period
APD
sec
5-day plot - Mean Wave Direction
MWD
 
5-day plot - Atmospheric Pressure
PRES
in
5-day plot - Pressure Tendency
PTDY
in
5-day plot - Air Temperature
ATMP
°F
5-day plot - Water Temperature
WTMP
°F
5-day plot - Dew Point
DEWP
°F
5-day plot - Salinity
SAL
psu
5-day plot - Visibility
VIS
nmi
5-day plot - Tide (above MLLW)
TIDE
ft
2024-04-20 08:54 amNNW 22.0 26.0----29.73- 35.1-----
2024-04-20 08:48 am N 24.1 26.0----29.73- 35.4-----
2024-04-20 08:42 am N 22.0 26.0----29.73- 34.7-----
2024-04-20 08:36 am N 22.0 25.1----29.72- 35.2-----
2024-04-20 08:30 am N 22.0 26.0----29.72- 35.4-----
2024-04-20 08:24 am N 22.0 25.1----29.72- 35.2-----
2024-04-20 08:18 amNNW 22.0 25.1----29.72- 35.2-----
2024-04-20 08:12 am N 22.0 25.1----29.72- 35.4-----
2024-04-20 08:06 am N 21.0 24.1----29.72- 35.1-----
2024-04-20 08:00 am N 19.0 24.1----29.72-0.02 35.2-----
2024-04-20 07:54 am N 22.0 27.0----29.72- 35.1-----
2024-04-20 07:48 amNNW 24.1 28.0----29.72- 35.4-----
2024-04-20 07:42 amNNW 21.0 25.1----29.71- 36.1-----
2024-04-20 07:36 amNNW 24.1 26.0----29.71- 36.0-----
2024-04-20 07:30 amNNW 20.0 22.9----29.71- 35.8-----
2024-04-20 07:24 am N 22.9 25.1----29.72- 35.2-----
2024-04-20 07:18 amNNW 21.0 25.1----29.71- 35.6-----
2024-04-20 07:12 amNNW 20.0 24.1----29.71- 35.4-----
2024-04-20 07:06 amNNW 20.0 25.1----29.71- 35.8-----
2024-04-20 07:00 amNNW 20.0 25.1----29.71-0.05 35.8-----
2024-04-20 06:54 am NW 22.0 25.1----29.71- 35.6-----
2024-04-20 06:48 amNNW 21.0 27.0----29.71- 35.4-----
2024-04-20 06:42 amWNW 20.0 24.1----29.71- 35.2-----
2024-04-20 06:36 amWNW 21.0 26.0----29.71- 34.3-----
2024-04-20 06:30 amWNW 22.9 28.0----29.71- 34.3-----
2024-04-20 06:24 amWNW 24.1 28.0----29.71- 34.2-----
2024-04-20 06:18 amWNW 25.1 28.0----29.71- 33.8-----
2024-04-20 06:12 amWNW 25.1 28.9----29.72- 34.0-----
2024-04-20 06:06 amWNW 21.0 25.1----29.72- 34.3-----
2024-04-20 06:00 amWNW 21.0 27.0----29.72-0.05 34.2-----
2024-04-20 05:54 am NW 21.0 27.0----29.72- 34.5-----
2024-04-20 05:48 am NW 22.9 28.0----29.72-------
2024-04-20 05:42 am NW 24.1 28.9----29.73-------
2024-04-20 05:36 am NW 24.1 29.9----29.73-------
2024-04-20 05:30 am NW 24.1 28.0----29.73- 34.3-----
2024-04-20 05:24 am NW 24.1 29.9----29.73- 33.8-----
2024-04-20 05:18 am NW 22.9 28.0----29.73- 34.2-----
2024-04-20 05:12 am NW 22.9 28.9----29.74- 34.0-----
2024-04-20 05:06 am NW 22.0 27.0----29.74- 33.8-----
2024-04-20 05:00 am NW 24.1 27.0----29.74-0.05 33.4-----
2024-04-20 04:54 am NW 22.0 27.0----29.74- 33.3-----
2024-04-20 04:48 am NW 26.0 32.1----29.75- 32.2-----
2024-04-20 04:42 am NW 24.1 28.0----29.75- 32.9-----
2024-04-20 04:36 am NW 21.0 26.0----29.75- 33.1-----
2024-04-20 04:30 am NW 25.1 27.0----29.75- 32.9-----
2024-04-20 04:24 am NW 22.9 28.0----29.75- 32.9-----
2024-04-20 04:18 am NW 22.0 25.1----29.75- 32.7-----
2024-04-20 04:12 am NW 22.0 27.0----29.76- 32.7-----
2024-04-20 04:06 am NW 24.1 28.0----29.76- 32.5-----
2024-04-20 04:00 am NW 22.0 27.0----29.76-0.05 32.5-----
2024-04-20 03:54 am NW 24.1 27.0----29.76- 32.0-----
2024-04-20 03:48 am NW 22.9 28.0----29.77- 32.4-----
2024-04-20 03:42 am NW 25.1 28.9----29.77- 32.2-----
2024-04-20 03:36 am NW 24.1 28.0----29.77- 32.7-----
2024-04-20 03:30 am NW 24.1 27.0----29.77- 32.2-----
2024-04-20 03:24 am NW 22.9 26.0----29.78- 32.4-----
2024-04-20 03:18 am NW 22.0 28.0----29.78- 32.5-----
2024-04-20 03:12 am NW 27.0 28.9----29.78- 32.0-----
2024-04-20 03:06 am NW 25.1 28.9----29.78- 32.0-----
2024-04-20 03:00 am NW 26.0 33.0----29.78-0.06 32.2-----
2024-04-20 02:54 am NW 28.9 31.1----29.78- 32.2-----
2024-04-20 02:48 amWNW 25.1 29.9----29.78- 32.0-----
2024-04-20 02:42 am NW 28.0 31.1----29.78- 31.5-----
2024-04-20 02:36 am NW 25.1 32.1----29.78- 32.2-----
2024-04-20 02:30 amWNW 25.1 31.1----29.78-------
2024-04-20 02:24 amWNW 25.1 29.9----29.79-------
2024-04-20 02:18 amWNW 25.1 34.0----29.79- 32.0-----
2024-04-20 02:12 amWNW 25.1 29.9----29.79- 32.5-----
2024-04-20 02:06 amWNW 25.1 29.9----29.79- 32.7-----
2024-04-20 02:00 amWNW 22.9 28.0----29.79-0.05------
2024-04-20 01:54 amWNW 25.1 28.0----29.79-------
2024-04-20 01:48 amWNW 22.0 27.0----29.80- 32.9-----
2024-04-20 01:42 amWNW 24.1 28.0----29.80- 33.1-----
2024-04-20 01:36 amWNW 24.1 28.0----29.80- 33.1-----
2024-04-20 01:30 amWNW 24.1 28.9----29.80- 33.3-----
2024-04-20 01:24 amWNW 25.1 28.9----29.80- 33.6-----
2024-04-20 01:18 amWNW 25.1 29.9----29.80- 34.2-----
2024-04-20 01:12 am NW 25.1 28.9----29.81- 34.3-----
2024-04-20 01:06 amWNW 25.1 28.9----29.81- 34.3-----
2024-04-20 01:00 amWNW 24.1 27.0----29.81-0.04 33.8-----
2024-04-20 12:54 am NW 21.0 28.0----29.82- 33.1-----
2024-04-20 12:48 am NW 26.0 29.9----29.82- 33.3-----
2024-04-20 12:42 am NW 24.1 28.0----29.82- 33.6-----
2024-04-20 12:36 amWNW 24.1 27.0----29.82- 33.1-----
2024-04-20 12:30 amWNW 22.0 25.1----29.82-------
2024-04-20 12:24 amWNW 22.0 27.0----29.83-------
2024-04-20 12:18 amWNW 22.9 26.0----29.83- 33.1-----
2024-04-20 12:12 am NW 20.0 29.9----29.83- 32.5-----
2024-04-20 12:06 amWNW 22.9 27.0----29.83- 33.8-----
2024-04-20 12:00 am-------29.83-0.03------
2024-04-19 11:54 pm-------29.84-------
2024-04-19 11:48 pmWNW 21.0 27.0----29.84- 34.0-----
2024-04-19 11:42 pm NW 22.0 28.9----29.84- 34.2-----
2024-04-19 11:36 pm NW 22.0 26.0----29.84- 33.8-----
2024-04-19 11:30 pm NW 22.9 26.0----29.84- 34.3-----
2024-04-19 11:24 pm NW 22.9 28.0----29.84- 34.3-----
2024-04-19 11:18 pmWNW 22.0 26.0----29.84- 34.2-----
2024-04-19 11:12 pmWNW 24.1 28.0----29.84- 34.0-----
2024-04-19 11:06 pm NW 20.0 26.0----29.85- 34.2-----
2024-04-19 11:00 pm NW 22.9 27.0----29.85-0.03 34.0-----
2024-04-19 10:54 pm NW 22.0 26.0----29.85- 34.2-----
2024-04-19 10:48 pm NW 22.9 29.9----29.85- 34.0-----
2024-04-19 10:42 pm NW 26.0 32.1----29.85- 34.0-----
2024-04-19 10:36 pmWNW 24.1 28.0----29.85- 34.2-----
2024-04-19 10:30 pm NW 19.0 26.0----29.85- 34.3-----
2024-04-19 10:24 pm NW 20.0 25.1----29.85- 33.8-----
2024-04-19 10:18 pm NW 25.1 28.0----29.85- 34.0-----
2024-04-19 10:12 pm NW 22.0 27.0----29.85- 33.8-----
2024-04-19 10:06 pm NW 22.9 27.0----29.85- 34.5-----
2024-04-19 10:00 pm NW 21.0 28.9----29.85-0.03 34.2-----
2024-04-19 09:54 pm NW 22.9 29.9----29.85- 34.2-----
2024-04-19 09:48 pm NW 22.9 28.0----29.85- 34.0-----
2024-04-19 09:42 pm NW 21.0 28.0----29.85- 34.0-----
2024-04-19 09:36 pm NW 26.0 28.9----29.85- 34.0-----
2024-04-19 09:30 pm NW 24.1 27.0----29.85- 34.0-----
2024-04-19 09:24 pm NW 24.1 27.0----29.85- 34.2-----
2024-04-19 09:18 pm NW 24.1 28.9----29.86- 34.2-----
2024-04-19 09:12 pm NW 24.1 28.0----29.86- 34.0-----
2024-04-19 09:06 pm NW 27.0 33.0----29.86- 33.8-----
2024-04-19 09:00 pm NW 24.1 28.0----29.86-0.04 34.2-----
2024-04-19 08:54 pm NW 22.9 28.0----29.86- 34.2-----
2024-04-19 08:48 pm NW 22.0 28.0----29.86- 34.2-----
2024-04-19 08:42 pm NW 25.1 29.9----29.86- 34.0-----
2024-04-19 08:36 pm NW 25.1 29.9----29.86- 34.0-----
2024-04-19 08:30 pm NW 25.1 29.9----29.86- 34.3-----
2024-04-19 08:24 pm NW 22.9 32.1----29.87- 34.2-----
2024-04-19 08:18 pm NW 25.1 31.1----29.87- 34.0-----
2024-04-19 08:12 pm NW 24.1 31.1----29.87- 34.3-----
2024-04-19 08:06 pm NW 26.0 29.9----29.87- 34.2-----
2024-04-19 08:00 pm NW 24.1 29.9----29.88-0.04 34.0-----
2024-04-19 07:54 pm NW 27.0 29.9----29.88- 34.2-----
2024-04-19 07:48 pm NW 27.0 29.9----29.88- 34.2-----
2024-04-19 07:42 pm NW 26.0 29.9----29.88- 34.0-----
2024-04-19 07:36 pm NW 27.0 29.9----29.88- 34.0-----
2024-04-19 07:30 pmNNW 25.1 32.1----29.88- 34.2-----
2024-04-19 07:24 pm NW 25.1 29.9----29.88- 34.2-----
2024-04-19 07:18 pm NW 27.0 29.9----29.88- 34.0-----
2024-04-19 07:12 pm NW 27.0 29.9----29.88- 34.0-----
2024-04-19 07:06 pm NW 25.1 28.9----29.88- 34.3-----
2024-04-19 07:00 pm NW 26.0 28.9----29.88-0.04 34.0-----
2024-04-19 06:54 pm NW 26.0 28.9----29.89- 34.3-----
2024-04-19 06:48 pm NW 26.0 31.1----29.89- 34.2-----
2024-04-19 06:42 pm NW 26.0 28.9----29.89- 34.2-----
2024-04-19 06:36 pm NW 26.0 29.9----29.89- 34.3-----
2024-04-19 06:30 pm NW 28.0 31.1----29.89- 34.3-----
2024-04-19 06:24 pm NW 27.0 28.9----29.90- 34.2-----
2024-04-19 06:18 pm NW 26.0 28.9----29.90- 34.2-----
2024-04-19 06:12 pm NW 22.0 29.9----29.90- 34.5-----
2024-04-19 06:06 pm NW 25.1 31.1----29.90- 34.0-----
2024-04-19 06:00 pm NW 25.1 29.9----29.90-0.04 34.3-----
2024-04-19 05:54 pm NW 25.1 29.9----29.91- 34.2-----
2024-04-19 05:48 pmNNW 27.0 32.1----29.91- 34.3-----
2024-04-19 05:42 pm NW 26.0 28.0----29.91- 34.2-----
2024-04-19 05:36 pmNNW 25.1 29.9----29.91- 34.3-----
2024-04-19 05:30 pmNNW 28.0 31.1----29.91- 34.3-----
2024-04-19 05:24 pm NW 27.0 29.9----29.91- 34.0-----
2024-04-19 05:18 pmNNW 26.0 29.9----29.91- 34.3-----
2024-04-19 05:12 pm NW 25.1 29.9----29.92- 34.3-----
2024-04-19 05:06 pm NW 27.0 29.9----29.92- 34.2-----
2024-04-19 05:00 pm NW 26.0 29.9----29.92-0.04 34.7-----
2024-04-19 04:54 pmNNW 26.0 28.9----29.92- 34.3-----
2024-04-19 04:48 pmNNW 28.0 31.1----29.92- 34.0-----
2024-04-19 04:42 pmNNW 27.0 31.1----29.92- 34.3-----
2024-04-19 04:36 pm NW 26.0 29.9----29.93- 34.2-----
2024-04-19 04:30 pmNNW 26.0 28.9----29.93- 34.0-----
2024-04-19 04:24 pmNNW 22.0 28.0----29.93- 34.5-----
2024-04-19 04:18 pmNNW 25.1 31.1----29.93- 34.3-----
2024-04-19 04:12 pm NW 26.0 31.1----29.93- 34.2-----
2024-04-19 04:06 pm NW 28.0 32.1----29.93- 34.0-----
2024-04-19 04:00 pm NW 26.0 31.1----29.93-0.03 34.0-----
2024-04-19 03:54 pm NW 26.0 32.1----29.93- 34.0-----
2024-04-19 03:48 pm NW 28.0 32.1----29.93- 34.0-----
2024-04-19 03:42 pm NW 27.0 29.9----29.93- 34.2-----
2024-04-19 03:36 pm NW 25.1 29.9----29.93- 34.0-----
2024-04-19 03:30 pmNNW 25.1 28.9----29.94- 34.0-----
2024-04-19 03:24 pmNNW 26.0 28.9----29.94- 34.0-----
2024-04-19 03:18 pmNNW 24.1 28.0----29.94- 34.3-----
2024-04-19 03:12 pmNNW 27.0 31.1----29.94- 34.0-----
2024-04-19 03:06 pmNNW 25.1 29.9----29.95- 34.0-----
2024-04-19 03:00 pmNNW 25.1 28.0----29.95-0.01 33.8-----
2024-04-19 02:54 pmNNW 25.1 29.9----29.95- 33.8-----
2024-04-19 02:48 pmNNW 27.0 31.1----29.95- 33.6-----
2024-04-19 02:42 pm NW 25.1 28.9----29.95- 33.8-----
2024-04-19 02:36 pmNNW 28.9 32.1----29.95- 33.4-----
2024-04-19 02:30 pm NW 26.0 29.9----29.95- 33.4-----
2024-04-19 02:24 pm NW 25.1 29.9----29.95- 33.8-----
2024-04-19 02:18 pm NW 25.1 28.9----29.96- 33.8-----
2024-04-19 02:12 pm NW 27.0 31.1----29.96- 33.4-----
2024-04-19 02:06 pmNNW 22.0 28.0----29.96- 33.8-----
2024-04-19 02:00 pmNNW 25.1 29.9----29.96+0.00 33.4-----
2024-04-19 01:54 pmNNW 25.1 29.9----29.96- 33.4-----
2024-04-19 01:48 pmNNW 24.1 28.9----29.96- 33.6-----
2024-04-19 01:42 pmNNW 25.1 29.9----29.96- 33.8-----
2024-04-19 01:36 pmNNW 24.1 31.1----29.96- 34.0-----
2024-04-19 01:30 pmNNW 25.1 31.1----29.96- 34.0-----
2024-04-19 01:24 pmNNW 25.1 31.1----29.96- 33.4-----
2024-04-19 01:18 pmNNW 26.0 32.1----29.96- 33.4-----
2024-04-19 01:12 pmNNW 25.1 31.1----29.96- 33.4-----
2024-04-19 01:06 pm NW 25.1 31.1----29.96- 33.4-----
2024-04-19 01:00 pmNNW 27.0 32.1----29.96+0.00 33.4-----
2024-04-19 12:54 pmNNW 26.0 31.1----29.96- 33.6-----
2024-04-19 12:48 pmNNW 27.0 32.1----29.96- 34.0-----
2024-04-19 12:42 pmNNW 25.1 31.1----29.96- 34.2-----
2024-04-19 12:36 pmNNW 25.1 33.0----29.96- 34.3-----
2024-04-19 12:30 pmNNW 28.0 32.1----29.96- 33.4-----
2024-04-19 12:24 pmNNW 28.0 34.0----29.96- 33.6-----
2024-04-19 12:18 pmNNW 27.0 34.0----29.96- 33.8-----
2024-04-19 12:12 pmNNW 29.9 34.0----29.96- 33.8-----
2024-04-19 12:06 pmNNW 29.9 34.0----29.96- 34.0-----
2024-04-19 12:00 pmNNW 27.0 33.0----29.96+0.01 34.3-----
2024-04-19 11:54 amNNW 28.0 34.0----29.95- 34.3-----
2024-04-19 11:48 amNNW 32.1 35.9----29.95- 33.6-----
2024-04-19 11:42 amNNW 28.9 35.9----29.96- 33.8-----
2024-04-19 11:36 amNNW 29.9 35.0----29.96- 34.2-----
2024-04-19 11:30 amNNW 33.0 38.1----29.96- 34.2-----
2024-04-19 11:24 amNNW 32.1 36.9----29.96- 33.8-----
2024-04-19 11:18 amNNW 31.1 36.9----29.96- 34.2-----
2024-04-19 11:12 amNNW 32.1 38.1----29.96- 34.0-----
2024-04-19 11:06 amNNW 28.9 35.9----29.96- 34.5-----
2024-04-19 11:00 am NW 31.1 36.9----29.96+0.01 34.2-----
2024-04-19 10:54 amNNW 28.9 34.0----29.96- 34.0-----
2024-04-19 10:48 amNNW 29.9 39.0----29.96- 34.0-----
2024-04-19 10:42 amNNW 34.0 38.1----29.96- 33.6-----
2024-04-19 10:36 amNNW 31.1 38.1----29.96- 33.8-----
2024-04-19 10:30 amNNW 31.1 39.0----29.96- 33.6-----
2024-04-19 10:24 amNNW 32.1 39.0----29.96- 33.3-----
2024-04-19 10:18 am NW 32.1 36.9----29.96- 33.3-----
2024-04-19 10:12 amNNW 31.1 39.0----29.96- 33.3-----
2024-04-19 10:06 am NW 31.1 38.1----29.96- 33.4-----
2024-04-19 10:00 amNNW 33.0 39.0----29.96+0.02 33.1-----
2024-04-19 09:54 amNNW 31.1 38.1----29.96- 33.4-----
2024-04-19 09:48 amNNW 33.0 38.1----29.96- 33.3-----
2024-04-19 09:42 amNNW 32.1 40.0----29.96- 33.4-----
2024-04-19 09:36 amNNW 35.0 40.0----29.95- 32.9-----
2024-04-19 09:30 amNNW 35.0 41.0----29.95- 33.1-----
2024-04-19 09:24 amNNW 35.0 42.9----29.95- 33.3-----
2024-04-19 09:18 amNNW 38.1 42.0----29.94- 33.1-----
2024-04-19 09:12 amNNW 34.0 42.9----29.94- 33.4-----
2024-04-19 09:06 amNNW 38.1 44.1----29.94- 32.9-----
2024-04-19 09:00 amNNW 35.9 42.0----29.94+0.00 33.3-----
2024-04-19 08:54 amNNW 34.0 42.0----29.95- 33.4-----